Time,TemperatureF,DewpointF,PressureIn,WindDirection,WindDirectionDegrees,WindSpeedMPH,WindSpeedGustMPH,Humidity,HourlyPrecipIn,Conditions,Clouds,dailyrainin,SoftwareType,DateUTC
2013-01-22 00:18:00,-3.3,-5.3,29.67,ESE,112,0.0,-999.0,91,-99.99,,,0.00,Acu-Link.com,2013-01-22 05:18:00,
2013-01-22 00:33:00,-3.5,-5.0,29.65,North,0,0.0,-999.0,93,-99.99,,,0.00,Acu-Link.com,2013-01-22 05:33:00,
2013-01-22 00:49:00,-3.5,-5.2,29.65,NW,315,0.0,-999.0,92,-99.99,,,0.00,Acu-Link.com,2013-01-22 05:49:00,
2013-01-22 01:04:00,-3.1,-4.8,29.65,WNW,292,2.2,-999.0,92,-99.99,,,0.00,Acu-Link.com,2013-01-22 06:04:00,
2013-01-22 01:19:00,-2.9,-4.6,29.65,North,0,1.7,-999.0,92,-99.99,,,0.00,Acu-Link.com,2013-01-22 06:19:00,
2013-01-22 01:34:00,-2.9,-4.9,29.65,ESE,112,0.0,-999.0,91,-99.99,,,0.00,Acu-Link.com,2013-01-22 06:34:00,
2013-01-22 01:50:00,-2.6,-4.6,29.65,ENE,67,1.1,-999.0,91,-99.99,,,0.00,Acu-Link.com,2013-01-22 06:50:00,
2013-01-22 02:05:00,-2.0,-4.0,29.65,SE,135,0.0,-999.0,91,-99.99,,,0.00,Acu-Link.com,2013-01-22 07:05:00,
2013-01-22 02:20:00,-1.3,-3.0,29.65,ESE,112,0.0,-999.0,92,-99.99,,,0.00,Acu-Link.com,2013-01-22 07:20:00,
2013-01-22 02:35:00,-0.8,-2.6,29.65,West,270,0.0,-999.0,92,-99.99,,,0.00,Acu-Link.com,2013-01-22 07:35:00,
2013-01-22 02:50:00,-0.6,-2.6,29.65,ESE,112,1.7,-999.0,91,-99.99,,,0.00,Acu-Link.com,2013-01-22 07:50:00,
2013-01-22 03:06:00,-0.4,-2.4,29.64,SE,135,0.0,-999.0,91,-99.99,,,0.00,Acu-Link.com,2013-01-22 08:06:00,
2013-01-22 03:21:00,-0.2,-2.2,29.64,ESE,112,0.0,-999.0,91,-99.99,,,0.00,Acu-Link.com,2013-01-22 08:21:00,
2013-01-22 03:36:00,0.0,-2.0,29.63,WSW,247,0.0,-999.0,91,-99.99,,,0.00,Acu-Link.com,2013-01-22 08:36:00,
2013-01-22 03:51:00,-0.2,-2.2,29.63,North,0,1.1,-999.0,91,-99.99,,,0.00,Acu-Link.com,2013-01-22 08:51:00,
2013-01-22 04:14:00,-0.2,-2.2,29.63,NW,315,2.2,-999.0,91,-99.99,,,0.00,Acu-Link.com,2013-01-22 09:14:00,
2013-01-22 04:29:00,-0.4,-2.4,29.62,South,180,0.0,-999.0,91,-99.99,,,0.00,Acu-Link.com,2013-01-22 09:29:00,
2013-01-22 04:45:00,-0.4,-2.4,29.63,West,270,1.1,-999.0,91,-99.99,,,0.00,Acu-Link.com,2013-01-22 09:45:00,
2013-01-22 05:00:00,-0.4,-2.2,29.63,NE,45,1.1,-999.0,92,-99.99,,,0.00,Acu-Link.com,2013-01-22 10:00:00,
2013-01-22 05:15:00,0.3,-1.2,29.63,WNW,292,0.0,-999.0,93,-99.99,,,0.00,Acu-Link.com,2013-01-22 10:15:00,
2013-01-22 05:30:00,0.3,-1.5,29.63,West,270,1.7,-999.0,92,-99.99,,,0.00,Acu-Link.com,2013-01-22 10:30:00,
2013-01-22 05:45:00,0.5,-1.3,29.63,West,270,0.0,-999.0,92,-99.99,,,0.00,Acu-Link.com,2013-01-22 10:45:00,
2013-01-22 06:00:00,1.2,-0.6,29.63,SW,225,0.0,-999.0,92,-99.99,,,0.00,Acu-Link.com,2013-01-22 11:00:00,
2013-01-22 06:16:00,1.2,-0.6,29.64,ESE,112,0.0,-999.0,92,-99.99,,,0.00,Acu-Link.com,2013-01-22 11:16:00,
2013-01-22 06:31:00,1.4,-0.4,29.64,SSE,157,0.0,-999.0,92,-99.99,,,0.00,Acu-Link.com,2013-01-22 11:31:00,
2013-01-22 07:17:00,1.6,-0.2,29.64,East,90,0.0,-999.0,92,-99.99,,,0.00,Acu-Link.com,2013-01-22 12:17:00,
2013-01-22 07:32:00,1.6,-0.2,29.65,West,270,1.7,-999.0,92,-99.99,,,0.00,Acu-Link.com,2013-01-22 12:32:00,
2013-01-22 07:47:00,1.8,-0.2,29.65,SSE,157,0.0,-999.0,91,-99.99,,,0.00,Acu-Link.com,2013-01-22 12:47:00,
2013-01-22 08:17:00,3.7,0.7,29.65,South,180,0.0,-999.0,87,-99.99,,,0.00,Acu-Link.com,2013-01-22 13:17:00,
2013-01-22 08:33:00,4.3,0.8,29.64,ESE,112,1.1,-999.0,85,-99.99,,,0.00,Acu-Link.com,2013-01-22 13:33:00,
2013-01-22 08:48:00,6.8,2.0,29.64,South,180,0.0,-999.0,80,-99.99,,,0.00,Acu-Link.com,2013-01-22 13:48:00,
2013-01-22 09:03:00,8.8,2.5,29.65,WSW,247,2.2,-999.0,75,-99.99,,,0.00,Acu-Link.com,2013-01-22 14:03:00,
2013-01-22 09:18:00,7.7,2.3,29.66,SSW,202,2.2,-999.0,78,-99.99,,,0.00,Acu-Link.com,2013-01-22 14:18:00,
2013-01-22 09:33:00,6.6,1.8,29.66,West,270,5.8,-999.0,80,-99.99,,,0.00,Acu-Link.com,2013-01-22 14:33:00,
2013-01-22 09:49:00,4.5,0.5,29.66,WSW,247,5.3,-999.0,83,-99.99,,,0.00,Acu-Link.com,2013-01-22 14:49:00,
2013-01-22 10:04:00,6.1,1.5,29.66,SW,225,5.8,-999.0,81,-99.99,,,0.00,Acu-Link.com,2013-01-22 15:04:00,
2013-01-22 10:19:00,5.4,0.9,29.67,SW,225,2.7,-999.0,81,-99.99,,,0.00,Acu-Link.com,2013-01-22 15:19:00,
2013-01-22 10:34:00,5.7,0.9,29.66,West,270,5.8,-999.0,80,-99.99,,,0.00,Acu-Link.com,2013-01-22 15:34:00,
2013-01-22 10:49:00,7.0,1.9,29.66,NE,45,0.0,-999.0,79,-99.99,,,0.00,Acu-Link.com,2013-01-22 15:49:00,
2013-01-22 11:05:00,9.7,2.2,29.66,North,0,3.7,-999.0,71,-99.99,,,0.00,Acu-Link.com,2013-01-22 16:05:00,
2013-01-22 11:20:00,10.2,1.8,29.65,WSW,247,11.9,-999.0,68,-99.99,,,0.00,Acu-Link.com,2013-01-22 16:20:00,
2013-01-22 11:35:00,8.4,1.6,29.65,WSW,247,6.8,-999.0,73,-99.99,,,0.00,Acu-Link.com,2013-01-22 16:35:00,
2013-01-22 11:50:00,7.0,1.3,29.65,WSW,247,9.4,-999.0,77,-99.99,,,0.00,Acu-Link.com,2013-01-22 16:50:00,
2013-01-22 12:06:00,6.1,0.7,29.65,SW,225,10.4,-999.0,78,-99.99,,,0.00,Acu-Link.com,2013-01-22 17:06:00,
2013-01-22 12:21:00,7.2,1.3,29.66,WSW,247,6.8,-999.0,76,-99.99,,,0.00,Acu-Link.com,2013-01-22 17:21:00,
2013-01-22 12:36:00,5.5,-0.1,29.65,West,270,10.9,-999.0,77,-99.99,,,0.00,Acu-Link.com,2013-01-22 17:36:00,
2013-01-22 12:51:00,5.9,0.0,29.66,WSW,247,11.9,-999.0,76,-99.99,,,0.00,Acu-Link.com,2013-01-22 17:51:00,
2013-01-22 13:06:00,5.5,-0.1,29.65,WSW,247,7.3,-999.0,77,-99.99,,,0.00,Acu-Link.com,2013-01-22 18:06:00,
2013-01-22 13:22:00,5.5,0.2,29.66,West,270,9.9,-999.0,78,-99.99,,,0.00,Acu-Link.com,2013-01-22 18:22:00,
2013-01-22 13:37:00,7.0,1.1,29.67,SSW,202,8.3,-999.0,76,-99.99,,,0.00,Acu-Link.com,2013-01-22 18:37:00,
2013-01-22 13:52:00,6.1,0.5,29.68,West,270,5.3,-999.0,77,-99.99,,,0.00,Acu-Link.com,2013-01-22 18:52:00,
2013-01-22 14:07:00,5.9,0.3,29.68,NNW,337,8.3,-999.0,77,-99.99,,,0.00,Acu-Link.com,2013-01-22 19:07:00,
2013-01-22 14:22:00,5.4,-0.5,29.68,West,270,9.4,-999.0,76,-99.99,,,0.00,Acu-Link.com,2013-01-22 19:22:00,
2013-01-22 14:38:00,4.8,-0.5,29.70,West,270,3.7,-999.0,78,-99.99,,,0.00,Acu-Link.com,2013-01-22 19:38:00,
2013-01-22 14:53:00,3.9,-1.4,29.71,NW,315,4.7,-999.0,78,-99.99,,,0.00,Acu-Link.com,2013-01-22 19:53:00,
2013-01-22 15:08:00,3.2,-1.6,29.71,West,270,9.4,-999.0,80,-99.99,,,0.00,Acu-Link.com,2013-01-22 20:08:00,
2013-01-22 15:23:00,3.4,-1.6,29.71,West,270,8.3,-999.0,79,-99.99,,,0.00,Acu-Link.com,2013-01-22 20:23:00,
2013-01-22 15:39:00,3.4,-1.6,29.72,WSW,247,8.9,-999.0,79,-99.99,,,0.00,Acu-Link.com,2013-01-22 20:39:00,
2013-01-22 15:54:00,2.5,-2.0,29.73,West,270,9.4,-999.0,81,-99.99,,,0.00,Acu-Link.com,2013-01-22 20:54:00,
2013-01-22 16:09:00,2.3,-1.9,29.74,SW,225,8.3,-999.0,82,-99.99,,,0.00,Acu-Link.com,2013-01-22 21:09:00,
2013-01-22 16:24:00,1.9,-1.8,29.74,WNW,292,4.7,-999.0,84,-99.99,,,0.00,Acu-Link.com,2013-01-22 21:24:00,
2013-01-22 16:40:00,1.6,-1.8,29.75,NE,45,6.3,-999.0,85,-99.99,,,0.00,Acu-Link.com,2013-01-22 21:40:00,
2013-01-22 16:55:00,0.7,-3.0,29.75,West,270,8.3,-999.0,84,-99.99,,,0.00,Acu-Link.com,2013-01-22 21:55:00,
2013-01-22 17:10:00,0.1,-4.1,29.75,SW,225,3.7,-999.0,82,-99.99,,,0.00,Acu-Link.com,2013-01-22 22:10:00,
2013-01-22 17:25:00,-0.6,-4.5,29.76,West,270,6.3,-999.0,83,-99.99,,,0.00,Acu-Link.com,2013-01-22 22:25:00,
2013-01-22 17:41:00,-1.1,-4.7,29.77,West,270,6.8,-999.0,84,-99.99,,,0.00,Acu-Link.com,2013-01-22 22:41:00,
2013-01-22 17:56:00,-1.5,-5.1,29.77,West,270,5.3,-999.0,84,-99.99,,,0.00,Acu-Link.com,2013-01-22 22:56:00,
2013-01-22 18:57:00,-2.7,-9.5,29.79,WSW,247,7.8,-999.0,72,-99.99,,,0.00,Acu-Link.com,2013-01-22 23:57:00,
2013-01-22 19:12:00,-2.9,-9.4,29.79,WNW,292,10.4,-999.0,73,-99.99,,,0.00,Acu-Link.com,2013-01-23 00:12:00,
2013-01-22 19:27:00,-2.9,-9.1,29.80,West,270,18.6,-999.0,74,-99.99,,,0.00,Acu-Link.com,2013-01-23 00:27:00,
2013-01-22 19:42:00,-3.5,-8.6,29.79,West,270,7.8,-999.0,78,-99.99,,,0.00,Acu-Link.com,2013-01-23 00:42:00,
2013-01-22 19:57:00,-3.6,-8.2,29.79,SW,225,7.3,-999.0,80,-99.99,,,0.00,Acu-Link.com,2013-01-23 00:57:00,
2013-01-22 20:13:00,-4.0,-7.8,29.79,West,270,6.8,-999.0,83,-99.99,,,0.00,Acu-Link.com,2013-01-23 01:13:00,
2013-01-22 20:28:00,-4.5,-8.1,29.79,WSW,247,6.8,-999.0,84,-99.99,,,0.00,Acu-Link.com,2013-01-23 01:28:00,
2013-01-22 20:43:00,-5.1,-8.9,29.80,WNW,292,8.9,-999.0,83,-99.99,,,0.00,Acu-Link.com,2013-01-23 01:43:00,
2013-01-22 20:58:00,-5.4,-10.5,29.80,WSW,247,13.0,-999.0,78,-99.99,,,0.00,Acu-Link.com,2013-01-23 01:58:00,
2013-01-22 21:14:00,-6.2,-11.2,29.80,West,270,5.8,-999.0,78,-99.99,,,0.00,Acu-Link.com,2013-01-23 02:14:00,
2013-01-22 21:29:00,-6.5,-11.8,29.80,West,270,15.0,-999.0,77,-99.99,,,0.00,Acu-Link.com,2013-01-23 02:29:00,
2013-01-22 21:44:00,-6.7,-11.7,29.80,WNW,292,9.4,-999.0,78,-99.99,,,0.00,Acu-Link.com,2013-01-23 02:44:00,
2013-01-22 21:59:00,-7.2,-11.7,29.79,West,270,7.3,-999.0,80,-99.99,,,0.00,Acu-Link.com,2013-01-23 02:59:00,
2013-01-22 22:14:00,-7.8,-12.3,29.80,West,270,10.9,-999.0,80,-99.99,,,0.00,Acu-Link.com,2013-01-23 03:14:00,
2013-01-22 22:30:00,-8.0,-12.7,29.80,West,270,7.8,-999.0,79,-99.99,,,0.00,Acu-Link.com,2013-01-23 03:30:00,
2013-01-22 22:45:00,-8.3,-12.8,29.81,WSW,247,8.3,-999.0,80,-99.99,,,0.00,Acu-Link.com,2013-01-23 03:45:00,
2013-01-22 23:00:00,-8.5,-12.7,29.82,WSW,247,6.8,-999.0,81,-99.99,,,0.00,Acu-Link.com,2013-01-23 04:00:00,
2013-01-22 23:15:00,-8.9,-12.9,29.81,WSW,247,6.3,-999.0,82,-99.99,,,0.00,Acu-Link.com,2013-01-23 04:15:00,
2013-01-22 23:30:00,-8.9,-12.6,29.82,SSW,202,7.8,-999.0,83,-99.99,,,0.00,Acu-Link.com,2013-01-23 04:30:00,
2013-01-22 23:46:00,-9.0,-12.7,29.80,NW,315,5.8,-999.0,83,-99.99,,,0.00,Acu-Link.com,2013-01-23 04:46:00,